Weather History for KDFW - March, 2014

Change the Weather History Date:

Friday, March 28, 2014

  Actual Average Record
Temperature  
Mean Temperature 67 °F 61 °F  
Max Temperature 80 °F 72 °F 90 °F (1928)
Min Temperature 54 °F 50 °F 25 °F (1899)
Degree Days  
Heating Degree Days 0 6  
Month to date heating degree days 315 245  
Since 1 July heating degree days 2488 2177  
Cooling Degree Days 2 2  
Month to date cooling degree days 18 29  
Year to date cooling degree days 18 36  
Growing Degree Days 18 (Base 50)    
Moisture  
Dew Point 59 °F    
Average Humidity 69    
Maximum Humidity 93    
Minimum Humidity 45    
Precipitation  
Precipitation T in 0.10 in 2.64 in (1989)
Month to date precipitation 1.45 3.17  
Year to date precipitation 2.19 7.96  
Snow  
Snow 0.00 in 0.00 in 0.00 in ()
Month to date snowfall 0.1 0.2  
Since 1 July snowfall 2.9 1.2  
Snow Depth 0.00 in    
Sea Level Pressure  
Sea Level Pressure 29.79 in    
Wind  
Wind Speed 14 mph (SSW)    
Max Wind Speed 25 mph    
Max Gust Speed 32 mph    
Visibility 8 miles    
Events Rain    
T = Trace of Precipitation, MM = Missing Value Source: NWS Daily Summary

Daily Weather History Graph

Daily Weather History Graph

Search for Another Location

Airport or City:

Trip Planner

Search our weather history database for the weather conditions in past years. The results will help you decide how hot, cold, wet, or windy it might be!

Date:

Astronomy

Mar. 28, 2014 Rise Set
Actual Time 7:21 AM CDT 7:45 PM CDT
Civil Twilight 6:56 AM CDT 8:10 PM CDT
Nautical Twilight 6:27 AM CDT 8:39 PM CDT
Astronomical Twilight 5:58 AM CDT 9:08 PM CDT
Moon 5:45 AM CDT (3/28) 5:48 PM CDT (3/28)
Length of Visible Light 13h 13m
Length of Day
12h 24m
Waning Crescent, 6% of the Moon is Illuminated
Mar 28
Waning Crescent
Mar 30
New
Apr 7
First Quarter
Apr 15
Full
Apr 22
Last Quarter

Hourly Weather History & Observations

Time (CDT) Temp. Dew Point Humidity Pressure Visibility Wind Dir Wind Speed Gust Speed Precip Events Conditions
12:53 AM 69.1 °F 64.0 °F 84% 29.72 in 10.0 mi South 9.2 mph - N/A   Clear
1:53 AM 68.0 °F 64.0 °F 87% 29.72 in 10.0 mi South 11.5 mph - N/A   Clear
2:42 AM 68.0 °F 64.9 °F 90% 29.72 in 7.0 mi South 13.8 mph - N/A   Partly Cloudy
2:53 AM 68.0 °F 64.9 °F 90% 29.70 in 5.0 mi South 15.0 mph - N/A   Scattered Clouds
2:57 AM 68.0 °F 64.9 °F 90% 29.72 in 5.0 mi South 16.1 mph - N/A   Mostly Cloudy
3:53 AM 68.0 °F 64.9 °F 90% 29.70 in 6.0 mi South 13.8 mph - N/A   Mostly Cloudy
4:16 AM 69.1 °F 64.9 °F 87% 29.73 in 6.0 mi SSE 6.9 mph - N/A   Mostly Cloudy
4:53 AM 69.1 °F 64.9 °F 87% 29.71 in 6.0 mi South 9.2 mph - N/A   Mostly Cloudy
5:17 AM 68.0 °F 64.9 °F 90% 29.73 in 6.0 mi SSE 9.2 mph - N/A   Scattered Clouds
5:36 AM 69.1 °F 64.9 °F 87% 29.74 in 6.0 mi South 10.4 mph - N/A   Mostly Cloudy
5:45 AM 69.1 °F 64.9 °F 87% 29.75 in 6.0 mi SSE 10.4 mph - N/A   Mostly Cloudy
5:53 AM 68.0 °F 64.9 °F 90% 29.73 in 6.0 mi SSE 10.4 mph - N/A   Mostly Cloudy
6:53 AM 66.9 °F 64.0 °F 90% 29.73 in 6.0 mi SSE 10.4 mph - N/A   Mostly Cloudy
7:26 AM 68.0 °F 64.0 °F 87% 29.76 in 6.0 mi South 15.0 mph - N/A   Scattered Clouds
7:53 AM 68.0 °F 64.0 °F 87% 29.75 in 6.0 mi South 11.5 mph - N/A   Scattered Clouds
8:49 AM 69.8 °F 64.4 °F 83% 29.81 in 8.0 mi SSW 18.4 mph - N/A   Overcast
8:53 AM 70.0 °F 64.9 °F 84% 29.79 in 8.0 mi SSW 23.0 mph - N/A   Overcast
9:23 AM 70.0 °F 64.9 °F 84% 29.80 in 9.0 mi SSW 9.2 mph - N/A   Mostly Cloudy
9:53 AM 71.1 °F 64.9 °F 81% 29.78 in 9.0 mi SSW 11.5 mph - N/A   Mostly Cloudy
10:53 AM 77.0 °F 62.1 °F 60% 29.81 in 10.0 mi WSW 15.0 mph - N/A   Mostly Cloudy
11:53 AM 77.0 °F 61.0 °F 58% 29.78 in 10.0 mi South 9.2 mph - N/A   Mostly Cloudy
12:53 PM 78.1 °F 59.0 °F 52% 29.77 in 10.0 mi South 8.1 mph - N/A   Mostly Cloudy
1:53 PM 79.0 °F 55.0 °F 44% 29.76 in 10.0 mi SSW 4.6 mph - N/A   Overcast
2:53 PM 71.1 °F 60.1 °F 68% 29.77 in 10.0 mi North 12.7 mph - 0.00 in Rain Light Rain
3:53 PM 70.0 °F 59.0 °F 68% 29.77 in 10.0 mi Calm Calm - 0.00 in   Mostly Cloudy
4:48 PM 66.2 °F 57.2 °F 73% 29.82 in 10.0 mi NNW 19.6 mph - 0.00 in   Mostly Cloudy
4:53 PM 66.9 °F 57.0 °F 70% 29.80 in 10.0 mi NNW 18.4 mph - 0.00 in   Mostly Cloudy
5:53 PM 68.0 °F 51.1 °F 55% 29.83 in 10.0 mi North 11.5 mph - N/A   Mostly Cloudy
6:53 PM 70.0 °F 48.9 °F 47% 29.81 in 10.0 mi North 19.6 mph 24.2 mph N/A   Mostly Cloudy
7:53 PM 64.9 °F 48.0 °F 54% 29.85 in 10.0 mi NNW 21.9 mph 28.8 mph N/A   Scattered Clouds
8:53 PM 61.0 °F 43.0 °F 52% 29.92 in 10.0 mi NNW 20.7 mph - N/A   Mostly Cloudy
9:53 PM 59.0 °F 42.1 °F 53% 29.98 in 10.0 mi NNW 19.6 mph - N/A   Mostly Cloudy
10:53 PM 57.0 °F 39.9 °F 53% 30.02 in 10.0 mi North 21.9 mph - N/A   Partly Cloudy
11:53 PM 55.0 °F 39.9 °F 57% 30.06 in 10.0 mi North 17.3 mph 26.5 mph N/A   Clear